TimeCDT,TemperatureF,Dew PointF,Humidity,Sea Level PressureIn,VisibilityMPH,Wind Direction,Wind SpeedMPH,Gust SpeedMPH,PrecipitationIn,Events,Conditions,WindDirDegrees,DateUTC
12:09 AM,68.0,60.8,78,29.83,10.0,SSW,5.8,-,N/A,,Clear,210,2013-07-06 05:09:00
12:28 AM,66.2,60.8,83,29.83,10.0,Calm,Calm,-,N/A,,Clear,0,2013-07-06 05:28:00
12:49 AM,64.4,60.8,88,29.83,10.0,Calm,Calm,-,N/A,,Clear,0,2013-07-06 05:49:00
1:09 AM,64.4,60.8,88,29.84,10.0,Calm,Calm,-,N/A,,Clear,0,2013-07-06 06:09:00
1:29 AM,64.4,60.8,88,29.83,10.0,South,4.6,-,N/A,,Clear,190,2013-07-06 06:29:00
1:49 AM,62.6,60.8,94,29.84,10.0,Calm,Calm,-,N/A,,Clear,0,2013-07-06 06:49:00
2:08 AM,62.6,59.0,88,29.83,10.0,Calm,Calm,-,N/A,,Clear,0,2013-07-06 07:08:00
2:29 AM,62.6,60.8,94,29.83,10.0,Calm,Calm,-,N/A,,Clear,0,2013-07-06 07:29:00
2:49 AM,62.6,60.8,94,29.83,10.0,Calm,Calm,-,N/A,,Clear,0,2013-07-06 07:49:00
3:08 AM,60.8,59.0,94,29.84,5.0,Calm,Calm,-,N/A,,Clear,0,2013-07-06 08:08:00
3:29 AM,62.6,60.8,94,29.84,5.0,Calm,Calm,-,N/A,,Clear,0,2013-07-06 08:29:00
3:48 AM,59.0,59.0,100,29.84,4.0,Calm,Calm,-,N/A,,Clear,0,2013-07-06 08:48:00
4:09 AM,60.8,59.0,94,29.84,4.0,Calm,Calm,-,N/A,,Clear,0,2013-07-06 09:09:00
4:28 AM,59.0,59.0,100,29.85,2.0,Calm,Calm,-,N/A,,Clear,0,2013-07-06 09:28:00
4:49 AM,59.0,59.0,100,29.86,4.0,Calm,Calm,-,N/A,,Clear,0,2013-07-06 09:49:00
5:09 AM,59.0,55.4,88,29.86,1.8,Calm,Calm,-,N/A,,Mist,0,2013-07-06 10:09:00
5:28 AM,57.2,55.4,94,29.86,0.5,Calm,Calm,-,N/A,Fog,Fog,0,2013-07-06 10:28:00
5:49 AM,57.2,55.4,94,29.86,7.0,Calm,Calm,-,N/A,,Clear,0,2013-07-06 10:49:00
6:09 AM,57.2,55.4,94,29.86,0.8,Calm,Calm,-,N/A,,Mist,0,2013-07-06 11:09:00
6:28 AM,59.0,59.0,100,29.86,2.0,Calm,Calm,-,N/A,,Clear,0,2013-07-06 11:28:00
6:49 AM,62.6,60.8,94,29.86,5.0,Calm,Calm,-,N/A,,Clear,0,2013-07-06 11:49:00
7:08 AM,66.2,62.6,88,29.87,10.0,Calm,Calm,-,N/A,,Clear,0,2013-07-06 12:08:00
7:28 AM,69.8,62.6,78,29.87,10.0,Calm,Calm,-,N/A,,Clear,0,2013-07-06 12:28:00
7:49 AM,71.6,64.4,78,29.87,10.0,Calm,Calm,-,N/A,,Clear,0,2013-07-06 12:49:00
8:08 AM,71.6,62.6,73,29.87,10.0,SSW,6.9,-,N/A,,Clear,210,2013-07-06 13:08:00
8:28 AM,71.6,62.6,73,29.87,10.0,South,4.6,-,N/A,,Clear,190,2013-07-06 13:28:00
8:49 AM,71.6,62.6,73,29.88,10.0,SSW,8.1,-,N/A,,Clear,200,2013-07-06 13:49:00
9:08 AM,71.6,62.6,73,29.88,10.0,SW,4.6,-,N/A,,Clear,220,2013-07-06 14:08:00
9:28 AM,73.4,64.4,73,29.88,10.0,SSW,6.9,-,N/A,,Mostly Cloudy,210,2013-07-06 14:28:00
9:49 AM,77.0,66.2,69,29.87,10.0,South,6.9,-,N/A,,Scattered Clouds,190,2013-07-06 14:49:00
10:08 AM,77.0,64.4,65,29.87,10.0,South,9.2,-,N/A,,Scattered Clouds,190,2013-07-06 15:08:00
10:28 AM,77.0,64.4,65,29.87,10.0,SW,5.8,-,N/A,,Scattered Clouds,230,2013-07-06 15:28:00
10:49 AM,77.0,66.2,69,29.88,10.0,SW,5.8,-,N/A,,Scattered Clouds,220,2013-07-06 15:49:00
11:08 AM,77.0,66.2,69,29.88,10.0,WSW,6.9,-,N/A,,Scattered Clouds,240,2013-07-06 16:08:00
11:28 AM,77.0,66.2,69,29.88,10.0,SW,5.8,-,N/A,Rain,Light Rain,220,2013-07-06 16:28:00
11:49 AM,77.0,64.4,65,29.90,10.0,SW,8.1,-,N/A,,Clear,220,2013-07-06 16:49:00
12:08 PM,73.4,64.4,73,29.90,10.0,SW,4.6,10.4,N/A,,Scattered Clouds,220,2013-07-06 17:08:00
12:29 PM,71.6,64.4,78,29.91,10.0,SW,8.1,-,N/A,,Mostly Cloudy,230,2013-07-06 17:29:00
12:48 PM,71.6,64.4,78,29.91,10.0,West,9.2,-,N/A,Rain-Thunderstorm,Rain,260,2013-07-06 17:48:00
1:09 PM,69.8,66.2,88,29.90,5.0,Calm,Calm,-,N/A,Rain,Light Rain,0,2013-07-06 18:09:00
1:29 PM,71.6,68.0,88,29.89,7.0,SE,3.5,-,N/A,Rain,Light Rain,130,2013-07-06 18:29:00
1:48 PM,71.6,68.0,88,29.89,10.0,SSE,8.1,-,N/A,,Overcast,160,2013-07-06 18:48:00
2:09 PM,71.6,68.0,88,29.88,10.0,South,6.9,-,N/A,,Mostly Cloudy,180,2013-07-06 19:09:00
2:29 PM,73.4,64.4,73,29.88,10.0,South,10.4,-,N/A,,Mostly Cloudy,190,2013-07-06 19:29:00
2:48 PM,73.4,66.2,78,29.88,10.0,South,8.1,-,N/A,,Scattered Clouds,170,2013-07-06 19:48:00
3:09 PM,71.6,64.4,78,29.88,10.0,South,4.6,-,N/A,,Mostly Cloudy,180,2013-07-06 20:09:00
3:29 PM,71.6,64.4,78,29.90,10.0,SW,8.1,-,N/A,,Mostly Cloudy,230,2013-07-06 20:29:00
3:48 PM,71.6,64.4,78,29.90,10.0,SSW,6.9,-,N/A,,Light Drizzle,210,2013-07-06 20:48:00
4:09 PM,71.6,68.0,88,29.90,10.0,SW,4.6,-,N/A,Rain,Light Rain,220,2013-07-06 21:09:00
4:29 PM,71.6,68.0,88,29.90,10.0,Calm,Calm,-,N/A,,Overcast,0,2013-07-06 21:29:00
4:48 PM,71.6,68.0,88,29.89,7.0,Calm,Calm,-,N/A,,Overcast,0,2013-07-06 21:48:00
5:08 PM,71.6,69.8,94,29.90,7.0,WSW,4.6,-,N/A,Rain,Light Rain,240,2013-07-06 22:08:00
5:28 PM,71.6,69.8,94,29.90,5.0,SSW,4.6,-,0.01,Rain,Light Rain,200,2013-07-06 22:28:00
5:49 PM,71.6,69.8,94,29.89,7.0,SSW,4.6,-,0.01,Rain,Light Rain,200,2013-07-06 22:49:00
6:08 PM,71.6,69.8,94,29.90,7.0,SSW,4.6,-,0.01,Rain,Light Rain,200,2013-07-06 23:08:00
6:28 PM,71.6,69.8,94,29.91,5.0,SW,3.5,-,0.02,Rain,Rain,230,2013-07-06 23:28:00
6:49 PM,69.8,68.0,94,29.90,4.0,South,4.6,-,0.04,Rain,Rain,170,2013-07-06 23:49:00
7:08 PM,69.8,68.0,94,29.89,3.0,Calm,Calm,-,0.01,Rain,Light Rain,0,2013-07-07 00:08:00
7:27 PM,69.8,68.0,94,29.89,1.8,Calm,Calm,-,0.03,Rain,Light Rain,0,2013-07-07 00:27:00
7:48 PM,69.8,68.0,94,29.89,3.0,Calm,Calm,-,0.01,Rain,Light Rain,0,2013-07-07 00:48:00
8:08 PM,69.8,68.0,94,29.88,3.0,Calm,Calm,-,N/A,Rain,Light Rain,0,2013-07-07 01:08:00
8:29 PM,69.8,68.0,94,29.88,4.0,Calm,Calm,-,N/A,Rain,Light Rain,0,2013-07-07 01:29:00
8:48 PM,69.8,68.0,94,29.88,4.0,Calm,Calm,-,N/A,,Mostly Cloudy,0,2013-07-07 01:48:00
9:08 PM,68.0,64.4,88,29.88,5.0,Calm,Calm,-,N/A,Thunderstorm,Mostly Cloudy,0,2013-07-07 02:08:00
9:29 PM,66.2,64.4,94,29.88,7.0,Calm,Calm,-,N/A,Thunderstorm,Scattered Clouds,0,2013-07-07 02:29:00
9:48 PM,64.4,64.4,100,29.88,5.0,Calm,Calm,-,N/A,,Scattered Clouds,0,2013-07-07 02:48:00
10:08 PM,64.4,62.6,94,29.88,5.0,NE,3.5,-,N/A,Thunderstorm,Mostly Cloudy,40,2013-07-07 03:08:00
10:29 PM,64.4,64.4,100,29.89,3.0,NE,3.5,-,N/A,,Overcast,50,2013-07-07 03:29:00
10:48 PM,64.4,64.4,100,29.90,3.0,NNE,4.6,-,N/A,,Overcast,30,2013-07-07 03:48:00
11:08 PM,64.4,64.4,100,29.89,4.0,NE,4.6,-,N/A,,Overcast,50,2013-07-07 04:08:00
11:29 PM,66.2,64.4,94,29.89,4.0,NE,3.5,-,N/A,,Overcast,50,2013-07-07 04:29:00
11:48 PM,64.4,64.4,100,29.88,4.0,NE,3.5,-,N/A,,Overcast,50,2013-07-07 04:48:00